Flag for Iran Weather past 2 weeks in Esfahãn, Iran

75 °F

Passing clouds.

Feels Like: 76 °F
Forecast: 56 / 84 °F
Wind: 5 mph from Northeast

Location: Esfahan

Current Time: Oct 4, 2015 at 7:50:34 PM

Latest Report: Oct 4, 2015 at 7:30 PM

Visibility: N/A

Pressure: 30.21 "Hg (25.20 "Hg at 1576m altitude)

Humidity: 16%

Dew point: 27 °F

Location of EsfahãnLocation

Historic Weather in Esfahãn — Graph


Esfahãn temperature yesterday

Maximum temperature yesterday: 88 °F (at 2:30 PM)
Minimum temperature yesterday: 52 °F (at 5:00 AM)
Average temperature yesterday: 72 °F

Past Weeks' High & Low Weather Summary

High90 °F (Sep 24, 2:30 PM)88% (Sep 20, 12:00 AM)30.42 "Hg (Sep 20, 12:00 AM)
Low41 °F (Sep 21, 6:30 AM)6% (Sep 22, 3:00 PM)30.01 "Hg (Sep 26, 2:30 PM)
Average69 °F24%30.18 "Hg
* Reported Sep 19 7:30 PM — Oct 4 6:30 PM, Esfahãn, Weather by CustomWeather, © 2015

Note: Actual official high and low records may vary slightly from our data, if they occured in-between our weather recording intervals... More about our weather records


Esfahãn weather history for previous 24 hours

Time TempWeatherWind HumidityBarometerVisibility
6:30 PM
Sun, Oct 4
82 °FPassing clouds.7 mph15%30.18 "HgN/A
6:00 PM82 °FPartly sunny.7 mph15%30.18 "HgN/A
5:30 PM82 °FScattered clouds.7 mph16%30.18 "HgN/A
5:00 PM84 °FScattered clouds.7 mph14%30.18 "HgN/A
4:30 PM86 °FScattered clouds.9 mph12%30.18 "HgN/A
4:00 PM86 °FScattered clouds.5 mph12%30.18 "HgN/A
3:30 PM88 °FScattered clouds.9 mph11%30.18 "HgN/A
3:00 PM88 °FScattered clouds.9 mph11%30.18 "HgN/A
2:30 PM88 °FScattered clouds.9 mph13%30.18 "HgN/A
2:00 PM86 °FScattered clouds.7 mph14%30.21 "Hg4 mi
1:30 PM86 °FPassing clouds.9 mph12%30.21 "Hg4 mi
1:00 PM86 °FPassing clouds.9 mph13%30.24 "Hg4 mi
12:30 PM84 °FPassing clouds.12 mph16%30.24 "Hg4 mi
12:00 PM84 °FPassing clouds.9 mph16%30.27 "HgN/A
11:30 AM84 °FPassing clouds.12 mph16%30.27 "HgN/A
11:00 AM82 °FPassing clouds.12 mph16%30.30 "Hg4 mi
10:30 AM81 °FPassing clouds.9 mph20%30.30 "Hg4 mi
10:00 AM81 °FClear.12 mph20%30.30 "Hg4 mi
9:30 AM79 °FClear.16 mph21%30.30 "Hg4 mi
9:00 AM77 °FHaze.14 mph22%30.33 "Hg3 mi
8:30 AM73 °FHaze.12 mph27%30.33 "Hg3 mi
8:00 AM68 °FHaze.9 mph35%30.30 "Hg2 mi
7:30 AM61 °FHaze.7 mph34%30.30 "Hg2 mi
7:00 AM57 °FHaze.7 mph39%30.30 "Hg2 mi
6:30 AM52 °FHaze.9 mph44%30.30 "Hg3 mi
6:00 AM54 °FPassing clouds.7 mph41%30.30 "Hg4 mi
5:30 AM54 °FPassing clouds.9 mph41%30.30 "HgN/A
5:00 AM54 °FClear.7 mph41%30.30 "Hg10 mi
4:30 AM54 °FClear.7 mph38%30.30 "Hg10 mi
4:00 AM57 °FClear.7 mph39%30.27 "Hg10 mi
3:30 AM55 °FClear.7 mph38%30.27 "Hg10 mi
3:00 AM55 °FClear.7 mph38%30.27 "Hg10 mi
2:30 AM57 °FClear.7 mph31%30.27 "Hg10 mi
1:00 AM63 °FClear.5 mph27%30.30 "Hg10 mi
12:30 AM63 °FClear.5 mph27%30.27 "Hg10 mi
12:00 AM63 °FClear.No wind27%30.27 "Hg10 mi
11:30 PM
Sat, Oct 3
64 °FClear.5 mph26%30.27 "Hg10 mi
11:00 PM66 °FClear.12 mph26%30.30 "Hg10 mi
10:30 PM72 °FClear.7 mph19%30.27 "Hg10 mi
10:00 PM70 °FClear.7 mph20%30.27 "Hg10 mi
9:30 PM70 °FClear.7 mph20%30.27 "Hg10 mi
9:00 PM70 °FClear.5 mph20%30.27 "Hg10 mi
8:30 PM73 °FClear.5 mph17%30.27 "Hg10 mi
8:00 PM73 °FClear.5 mph17%30.27 "Hg10 mi
7:30 PM77 °FClear.5 mph18%30.24 "Hg10 mi
7:00 PM77 °FClear.5 mph17%30.24 "Hg10 mi
Weather by CustomWeather, © 2015

See weather overviewHow to use our weather pages